| time (UTC) | temp F | wind direction | speed knots | gust knots | rain 1hr in | rain 24hr in | rain mn in | humidity % | barometer mb |
| 20260507030003 | 40 | 0 | 0.0 | 0.0 | 0.00 | 0.00 | 0.00 | 95 | 1018.6 |
| 20260507025403 | 40 | 0 | 0.0 | 0.0 | 0.00 | 0.00 | 0.00 | 95 | 1018.7 |
| 20260507024718 | 40 | 0 | 0.0 | 0.0 | 0.00 | 0.00 | 0.00 | 95 | 1018.6 |
| 20260507023603 | 41 | 0 | 0.0 | 0.0 | 0.00 | 0.00 | 0.00 | 95 | 1018.7 |
| 20260507022703 | 41 | 0 | 0.0 | 0.0 | 0.00 | 0.00 | 0.00 | 95 | 1018.7 |
| 20260507022018 | 41 | 260 | 0.0 | 0.9 | 0.00 | 0.00 | 0.00 | 95 | 1018.8 |
| 20260507020904 | 41 | 0 | 0.0 | 0.0 | 0.00 | 0.00 | 0.00 | 95 | 1018.6 |
| 20260507020216 | 40 | 0 | 0.0 | 0.0 | 0.00 | 0.00 | 0.00 | 95 | 1018.8 |
| 20260507015616 | 40 | 0 | 0.0 | 0.0 | 0.00 | 0.00 | 0.00 | 95 | 1018.5 |
| 20260507014503 | 39 | 0 | 0.0 | 0.0 | 0.00 | 0.00 | 0.00 | 95 | 1018.5 |
| 20260507013603 | 38 | 0 | 0.0 | 0.0 | 0.00 | 0.00 | 0.00 | 95 | 1018.6 |
| 20260507012703 | 38 | 0 | 0.0 | 0.0 | 0.00 | 0.00 | 0.00 | 95 | 1018.7 |
| 20260507011803 | 38 | 0 | 0.0 | 0.0 | 0.00 | 0.00 | 0.00 | 95 | 1018.6 |
| 20260507010003 | 39 | 0 | 0.0 | 0.0 | 0.00 | 0.00 | 0.00 | 94 | 1018.5 |
| 20260507005403 | 38 | 0 | 0.0 | 0.0 | 0.00 | 0.00 | 0.00 | 94 | 1018.6 |
| 20260507004503 | 38 | 0 | 0.0 | 0.0 | 0.00 | 0.00 | 0.00 | 94 | 1018.7 |
| 20260507003603 | 39 | 0 | 0.0 | 0.0 | 0.00 | 0.00 | 0.00 | 94 | 1018.4 |
| 20260507002704 | 39 | 0 | 0.0 | 0.0 | 0.00 | 0.00 | 0.00 | 94 | 1018.6 |
| 20260507001803 | 40 | 248 | 0.0 | 0.9 | 0.00 | 0.00 | 0.00 | 94 | 1018.6 |
| 20260507000904 | 40 | 0 | 0.0 | 0.0 | 0.00 | 0.00 | 0.00 | 93 | 1018.7 |
| 20260507000003 | 40 | 0 | 0.0 | 0.0 | 0.00 | 0.00 | 0.00 | 93 | 1018.8 |
| 20260506235403 | 41 | 231 | 0.0 | 0.9 | 0.00 | 0.00 | 0.00 | 93 | 1018.5 |
| 20260506234503 | 40 | 0 | 0.0 | 0.0 | 0.00 | 0.00 | 0.00 | 93 | 1018.4 |
| 20260506233604 | 41 | 0 | 0.0 | 0.0 | 0.00 | 0.00 | 0.00 | 92 | 1018.4 |
| 20260506232703 | 41 | 0 | 0.0 | 0.0 | 0.00 | 0.00 | 0.00 | 92 | 1018.6 |
| 20260506231803 | 41 | 0 | 0.0 | 0.0 | 0.00 | 0.00 | 0.00 | 92 | 1018.6 |
| 20260506230903 | 41 | 0 | 0.0 | 0.0 | 0.00 | 0.00 | 0.00 | 91 | 1018.4 |
| 20260506230003 | 42 | 287 | 0.0 | 0.9 | 0.00 | 0.00 | 0.00 | 91 | 1018.5 |
| 20260506225403 | 42 | 285 | 0.0 | 0.9 | 0.00 | 0.00 | 0.00 | 91 | 1018.6 |
| 20260506224503 | 42 | 297 | 0.0 | 1.7 | 0.00 | 0.00 | 0.00 | 91 | 1018.3 |
| 20260506223603 | 42 | 342 | 0.0 | 0.9 | 0.00 | 0.00 | 0.00 | 90 | 1018.5 |
| 20260506222703 | 43 | 19 | 0.0 | 0.9 | 0.00 | 0.00 | 0.00 | 90 | 1018.3 |
| 20260506222016 | 43 | 336 | 0.0 | 0.9 | 0.00 | 0.00 | 0.00 | 90 | 1018.4 |
| 20260506220903 | 43 | 275 | 0.0 | 0.9 | 0.00 | 0.00 | 0.00 | 89 | 1018.3 |
| 20260506220003 | 43 | 292 | 0.0 | 0.9 | 0.00 | 0.00 | 0.00 | 89 | 1018.2 |
| 20260506215403 | 44 | 118 | 0.0 | 0.9 | 0.00 | 0.00 | 0.00 | 88 | 1018.0 |
| 20260506214505 | 44 | 326 | 0.0 | 0.9 | 0.00 | 0.00 | 0.00 | 87 | 1018.1 |
| 20260506213603 | 45 | 331 | 0.0 | 1.7 | 0.00 | 0.00 | 0.00 | 87 | 1018.2 |
| 20260506212703 | 45 | 16 | 0.9 | 1.7 | 0.00 | 0.00 | 0.00 | 86 | 1018.2 |
| 20260506211803 | 45 | 9 | 0.9 | 1.7 | 0.00 | 0.00 | 0.00 | 85 | 1018.4 |